• In Romania
  • List of Countries
  • For 7 days
  • Water Temperature
  • Satellite Maps
  • Weather Map
  • Weather Widgets
  • user-avatar
    Login

    Hourly Weather Djelfa

    Today, 30 March, Thursday

    Time Temperature Precipitation Wind Pressure Humidity
    00:00 +9°C° 0 mm 1 mps 669 mmHg 55%
    01:00 +9°C° 0 mm 1 mps 669 mmHg 58%
    02:00 +8°C° 0 mm 1 mps 668 mmHg 60%
    03:00 +6°C° 0 mm 0 mps 668 mmHg 63%
    04:00 +6°C° 0 mm 0 mps 668 mmHg 63%
    05:00 +6°C° 0 mm 0 mps 668 mmHg 64%
    06:00 +6°C° 0 mm 0 mps 668 mmHg 64%
    07:00 +9°C° 0 mm 1 mps 669 mmHg 54%
    08:00 +11°C° 0 mm 1 mps 669 mmHg 44%
    09:00 +14°C° 0 mm 1 mps 670 mmHg 34%
    10:00 +15°C° 0 mm 1 mps 670 mmHg 30%
    11:00 +16°C° 0 mm 1 mps 670 mmHg 25%
    12:00 +19°C° 0 mm 1 mps 671 mmHg 20%
    13:00 +20°C° 0 mm 1 mps 670 mmHg 18%
    14:00 +20°C° 0 mm 1 mps 670 mmHg 16%
    15:00 +21°C° 0 mm 1 mps 670 mmHg 14%
    16:00 +19°C° 0 mm 2 mps 670 mmHg 16%
    17:00 +18°C° 0 mm 2 mps 669 mmHg 18%
    18:00 +17°C° 0 mm 3 mps 669 mmHg 19%
    19:00 +16°C° 0 mm 3 mps 669 mmHg 22%
    20:00 +14°C° 0 mm 3 mps 669 mmHg 24%
    21:00 +13°C° 0 mm 4 mps 670 mmHg 26%
    22:00 +13°C° 0 mm 4 mps 670 mmHg 27%
    23:00 +12°C° 0 mm 4 mps 669 mmHg 28%

    Tomorrow, 31 March, Friday

    Time Temperature Precipitation Wind Pressure Humidity
    00:00 +12°C° 0 mm 5 mps 669 mmHg 29%
    01:00 +11°C° 0 mm 4 mps 669 mmHg 30%
    02:00 +11°C° 0 mm 4 mps 669 mmHg 31%
    03:00 +10°C° 0 mm 3 mps 668 mmHg 31%
    04:00 +10°C° 0 mm 3 mps 668 mmHg 32%
    05:00 +9°C° 0 mm 3 mps 668 mmHg 33%
    06:00 +9°C° 0 mm 3 mps 668 mmHg 34%
    07:00 +11°C° 0 mm 3 mps 669 mmHg 30%
    08:00 +14°C° 0 mm 4 mps 669 mmHg 27%
    09:00 +17°C° 0 mm 4 mps 670 mmHg 23%
    10:00 +19°C° 0 mm 4 mps 670 mmHg 21%
    11:00 +20°C° 0 mm 4 mps 670 mmHg 19%
    12:00 +22°C° 0 mm 4 mps 670 mmHg 17%
    13:00 +23°C° 0 mm 4 mps 669 mmHg 16%
    14:00 +23°C° 0 mm 4 mps 669 mmHg 15%
    15:00 +25°C° 0 mm 5 mps 668 mmHg 15%
    16:00 +22°C° 0.1 mm 4 mps 668 mmHg 18%
    17:00 +21°C° 0.1 mm 3 mps 668 mmHg 21%
    18:00 +20°C° 0.1 mm 2 mps 667 mmHg 25%
    19:00 +19°C° 0.1 mm 2 mps 667 mmHg 28%
    20:00 +18°C° 0.1 mm 3 mps 667 mmHg 31%
    21:00 +16°C° 0.1 mm 3 mps 667 mmHg 35%
    22:00 +16°C° 0 mm 3 mps 667 mmHg 38%
    23:00 +14°C° 0 mm 3 mps 666 mmHg 41%

    Day after tomorrow, 1 April, Saturday

    Time Temperature Precipitation Wind Pressure Humidity
    00:00 +13°C° 0 mm 3 mps 666 mmHg 44%
    01:00 +13°C° 0 mm 4 mps 666 mmHg 45%
    02:00 +12°C° 0 mm 4 mps 665 mmHg 45%
    03:00 +12°C° 0 mm 4 mps 665 mmHg 46%
    04:00 +12°C° 0 mm 4 mps 665 mmHg 47%
    05:00 +10°C° 0 mm 5 mps 665 mmHg 48%
    06:00 +10°C° 0 mm 5 mps 665 mmHg 49%
    07:00 +11°C° 0 mm 6 mps 665 mmHg 46%
    08:00 +12°C° 0 mm 7 mps 666 mmHg 43%
    09:00 +15°C° 0 mm 9 mps 666 mmHg 39%
    10:00 +16°C° 0 mm 9 mps 666 mmHg 35%
    11:00 +17°C° 0 mm 10 mps 666 mmHg 30%
    12:00 +18°C° 0 mm 10 mps 666 mmHg 25%
    13:00 +18°C° 0 mm 10 mps 665 mmHg 25%
    14:00 +18°C° 0 mm 11 mps 665 mmHg 25%
    15:00 +17°C° 0 mm 11 mps 664 mmHg 25%
    16:00 +16°C° 0 mm 10 mps 664 mmHg 30%
    17:00 +14°C° 0 mm 10 mps 664 mmHg 34%
    18:00 +12°C° 0 mm 9 mps 664 mmHg 38%
    19:00 +11°C° 0 mm 8 mps 664 mmHg 40%
    20:00 +10°C° 0 mm 7 mps 665 mmHg 42%
    21:00 +8°C° 0 mm 7 mps 665 mmHg 43%
    22:00 +8°C° 0 mm 6 mps 665 mmHg 46%
    23:00 +7°C° 0 mm 5 mps 665 mmHg 48%

    2 April, Sunday

    Time Temperature Precipitation Wind Pressure Humidity
    00:00 +7°C° 0 mm 5 mps 664 mmHg 50%
    01:00 +6°C° 0 mm 4 mps 664 mmHg 55%
    02:00 +6°C° 0 mm 4 mps 663 mmHg 59%
    03:00 +5°C° 0 mm 3 mps 663 mmHg 64%
    04:00 +5°C° 0 mm 3 mps 663 mmHg 65%
    05:00 +5°C° 0 mm 3 mps 663 mmHg 66%
    06:00 +5°C° 0 mm 2 mps 663 mmHg 68%
    07:00 +6°C° 0 mm 4 mps 664 mmHg 58%
    08:00 +8°C° 0 mm 5 mps 664 mmHg 49%
    09:00 +10°C° 0 mm 6 mps 665 mmHg 40%
    10:00 +11°C° 0 mm 7 mps 665 mmHg 36%
    11:00 +13°C° 0 mm 8 mps 665 mmHg 32%
    12:00 +15°C° 0 mm 8 mps 665 mmHg 28%
    13:00 +15°C° 0 mm 8 mps 664 mmHg 28%
    14:00 +15°C° 0 mm 8 mps 664 mmHg 27%
    15:00 +15°C° 0 mm 9 mps 664 mmHg 27%
    16:00 +13°C° 0 mm 8 mps 664 mmHg 30%
    17:00 +12°C° 0 mm 7 mps 664 mmHg 34%
    18:00 +11°C° 0 mm 7 mps 664 mmHg 38%
    19:00 +9°C° 0 mm 7 mps 664 mmHg 43%
    20:00 +8°C° 0 mm 6 mps 664 mmHg 49%
    21:00 +7°C° 0 mm 6 mps 665 mmHg 55%
    22:00 +5°C° 0 mm 6 mps 665 mmHg 59%
    23:00 +4°C° 0 mm 6 mps 664 mmHg 62%

    3 April, Monday

    Time Temperature Precipitation Wind Pressure Humidity
    00:00 +3°C° 0 mm 6 mps 664 mmHg 66%
    01:00 +3°C° 0 mm 5 mps 664 mmHg 71%
    02:00 +3°C° 0 mm 5 mps 664 mmHg 76%
    03:00 +2°C° 0 mm 5 mps 664 mmHg 81%
    04:00 +3°C° 0 mm 5 mps 664 mmHg 81%
    05:00 +3°C° 0 mm 5 mps 664 mmHg 81%
    06:00 +3°C° 0 mm 5 mps 664 mmHg 82%
    07:00 +4°C° 0 mm 6 mps 665 mmHg 75%
    08:00 +7°C° 0 mm 6 mps 665 mmHg 68%
    09:00 +9°C° 0 mm 7 mps 666 mmHg 61%
    10:00 +10°C° 0 mm 7 mps 666 mmHg 56%
    11:00 +11°C° 0 mm 7 mps 666 mmHg 52%
    12:00 +12°C° 0 mm 7 mps 666 mmHg 47%
    13:00 +14°C° 0 mm 7 mps 666 mmHg 45%
    14:00 +14°C° 0 mm 7 mps 666 mmHg 43%
    15:00 +15°C° 0 mm 7 mps 665 mmHg 41%
    16:00 +14°C° 0 mm 7 mps 665 mmHg 45%
    17:00 +12°C° 0 mm 7 mps 665 mmHg 50%
    18:00 +11°C° 0 mm 7 mps 665 mmHg 54%
    19:00 +10°C° 0 mm 6 mps 666 mmHg 61%
    20:00 +9°C° 0 mm 5 mps 666 mmHg 68%
    21:00 +8°C° 0 mm 5 mps 666 mmHg 75%
    22:00 +7°C° 0 mm 4 mps 666 mmHg 79%
    23:00 +7°C° 0 mm 4 mps 666 mmHg 83%

    4 April, Tuesday

    Time Temperature Precipitation Wind Pressure Humidity
    00:00 +7°C° 0 mm 3 mps 666 mmHg 87%
    01:00 +7°C° 0 mm 3 mps 666 mmHg 89%
    02:00 +5°C° 0 mm 3 mps 665 mmHg 90%
    03:00 +5°C° 0 mm 3 mps 665 mmHg 92%
    04:00 +5°C° 0 mm 3 mps 665 mmHg 92%
    05:00 +4°C° 0 mm 3 mps 665 mmHg 92%
    06:00 +5°C° 0 mm 2 mps 665 mmHg 91%
    07:00 +7°C° 0 mm 3 mps 666 mmHg 78%
    08:00 +8°C° 0 mm 4 mps 666 mmHg 66%
    09:00 +10°C° 0 mm 4 mps 667 mmHg 53%
    10:00 +12°C° 0 mm 4 mps 667 mmHg 45%
    11:00 +13°C° 0 mm 4 mps 667 mmHg 37%
    12:00 +15°C° 0 mm 4 mps 667 mmHg 30%
    13:00 +15°C° 0 mm 4 mps 667 mmHg 28%
    14:00 +17°C° 0 mm 4 mps 666 mmHg 25%
    15:00 +18°C° 0 mm 4 mps 666 mmHg 23%
    16:00 +17°C° 0 mm 4 mps 666 mmHg 26%
    17:00 +15°C° 0 mm 4 mps 666 mmHg 28%
    18:00 +14°C° 0 mm 4 mps 666 mmHg 30%
    19:00 +13°C° 0 mm 4 mps 666 mmHg 38%
    20:00 +12°C° 0 mm 3 mps 666 mmHg 46%
    21:00 +11°C° 0 mm 3 mps 667 mmHg 54%
    22:00 +10°C° 0 mm 3 mps 666 mmHg 61%
    23:00 +9°C° 0 mm 2 mps 666 mmHg 67%
    Show more